Regional Weather Roundup
Issued by NWS Upton, NY

Current Version | Previous Version | Text Only | Print | Product List | Glossary On
Versions: 1 2 3 4 5 6 7 8 9 10 11 12 13 14 15 16 17 18 19 20 21 22 23 24 25 26 27
000
ASUS41 KOKX 050504
RWROKX

REGIONAL WEATHER ROUNDUP
NATIONAL WEATHER SERVICE NEW YORK NY
100 AM EDT THU MAY 05 2016

NOTE: "FAIR" INDICATES FEW OR NO CLOUDS BELOW 12,000 FEET WITH NO
SIGNIFICANT WEATHER AND/OR OBSTRUCTIONS TO VISIBILITY.

NYZ071-072-176-178-NJZ106-104-050600-
NEW YORK CITY METRO AREA


CITY           SKY/WX    TMP DP  RH WIND       PRES   REMARKS
CENTRAL PARK   CLOUDY    49  41  74 NE8       29.76S
LAGUARDIA APRT CLOUDY    50  46  86 NE16      29.74S
KENNEDY INTL   CLOUDY    49  43  80 NE15      29.75S
NEWARK/LIBERTY CLOUDY    49  43  80 NE13      29.74S
BRNX BOT. GARD   N/A     48  41  76 NE8       29.75S
TETERBORO      CLOUDY    49  41  74 NE3       29.74S
$$

NYZ177-179-078>081-050600-
LONG ISLAND NEW YORK

CITY           SKY/WX    TMP DP  RH WIND       PRES   REMARKS
FARMINGDALE    CLOUDY    47  43  86 NE12      29.74S
ISLIP          CLOUDY    45  42  89 N13       29.73S
SHIRLEY        CLOUDY    47  42  83 N8        29.74S
RIVERHEAD        N/A     46  43  87 NE9       29.74S
WESTHAMPTON    CLOUDY    42  42 100 N16       29.74F
EAST HAMPTON   CLOUDY    44  42  94 N7        29.72F
MONTAUK POINT    N/A     47  44  90 N14G20    29.73F
$$

NYZ052-065-067-050600-
HUDSON VALLEY

CITY           SKY/WX    TMP DP  RH WIND       PRES   REMARKS
WHITE PLAINS   CLOUDY    47  41  80 NE6       29.73S
NEWBURGH       CLOUDY    46  45  93 NE9       29.76F
MONTGOMERY     CLOUDY    47  44  90 NE6       29.75S
POUGHKEEPSIE   CLOUDY    49  43  80 N3        29.76S
ALBANY         CLOUDY    48  44  86 N3        29.79F
$$

NJZ001-105-106-008-010-013-015-019>022-104-050600-
NEW JERSEY

CITY           SKY/WX    TMP DP  RH WIND       PRES   REMARKS
NEWARK/LIBERTY CLOUDY    49  43  80 NE13      29.74S
TETERBORO      CLOUDY    49  41  74 NE3       29.74S
CALDWELL       CLOUDY    49  30  48 E5        29.75S
MORRISTOWN     CLOUDY    48  41  76 NE6       29.75R
SOMERVILLE     CLOUDY    50  44  80 VRB5      29.73R
SUSSEX         CLOUDY    47  42  83 NE8       29.75S
ANDOVER          N/A     47  43  86 NE7       29.74S
TRENTON        CLOUDY    49  45  86 NE7       29.72F
MILLVILLE      CLOUDY    49  46  90 NE13      29.71S
ATLANTIC CITY  CLOUDY    48  46  93 NE13G23   29.71S
WRIGHTSTOWN    CLOUDY    48  47  96 NE7       29.70S
TOMS RIVER     CLOUDY    46  43  87 NE8       29.73F
BELMAR         CLOUDY    47  45  93 NE9       29.73F
$$

PAZ047>061-062-071-050600-
EASTERN PENNSYLVANIA

CITY           SKY/WX    TMP DP  RH WIND       PRES   REMARKS
PHILADELPHIA   CLOUDY    51  46  83 E8        29.73S
ALLENTOWN      CLOUDY    49  45  86 E7        29.74R
SCRANTON       CLOUDY    48  44  86 E7        29.72F
$$

CTZ002-004>006-009-010-012-RIZ004-006-007-MAZ004-011-015-050600-
SOUTHERN NEW ENGLAND
 IN CT

CITY           SKY/WX    TMP DP  RH WIND       PRES   REMARKS
BRADLEY INTL   CLOUDY    45  40  82 NE14G20   29.78S
HARTFORD       CLOUDY    47  41  80 N12G17    29.78S
DANBURY        CLOUDY    46  41  82 NE9       29.76S
WTRBRY/OXFORD    N/A     45  37  76 NE12G21   29.75F
BRIDGEPORT     CLOUDY    48  42  80 N10       29.76S
MERIDEN        CLOUDY    46  40  79 N8        29.77R
NEW HAVEN      CLOUDY    46  42  86 N10       29.75S
CHESTER        CLOUDY    45  41  87 N10       29.75S
GROTON         CLOUDY    45  45 100 N10       29.74R
WILLIMANTIC    CLOUDY    46  40  79 N7        29.77S

 IN RI

CITY           SKY/WX    TMP DP  RH WIND       PRES   REMARKS
PROVIDENCE     CLOUDY    45  42  89 N12       29.75F FOG
BLOCK ISLAND   CLOUDY    45  44  97 NE14G24   29.72S
WESTERLY       CLOUDY    46  42  86 N6        29.74R

 IN MA

CITY           SKY/WX    TMP DP  RH WIND       PRES   REMARKS
BOSTON         CLOUDY    44  42  93 NE14      29.79F FOG
WORCESTER      FOG       39  38  96 NE14G23   29.76S VSB 1/2 WCI  31
WESTFIELD      CLOUDY    45  40  82 N8        29.78F
PROVINCETOWN   CLOUDY    44  43  96 NE16      29.74S
NANTUCKET      CLOUDY    46  43  89 NE20G29   29.67S
$$

ANZ330-335-338-340-345-350-353-355-050600-
COASTAL MARINE OBSERVATIONS


STATION/POSITION TIME  SKY/WX   TEMP    WIND        PRES    VSBY  WAVE
                                AIR SEA DIR/SP/G                  HT/PER
                 (UTC)          (F)     (DEG/KT/KT) (MB)    (MI)  (FT/S)
NY HARB ENTRANCE 0350            48 50   40/ 19/ 23 1006.1          6/ 8
20S FIRE ISLAND  0350            47 48   30/ 19/ 23 1005.7          7/ 7
GREAT SOUTH BAY  0400            48 54   20/ 14/ 17   N/A
23 SSW MONTAUK P 0450            46 46   30/ 19/ 25 1005.3          7/ 6
15 E BARNEGAT LI 0422               50                N/A           8/ 8
HUDSON CANYON    0350            48 49              1004.4          8/ 7
KINGS POINT      0400            49 53              1006.9
EXECUTION ROCKS  NOT AVBL
CENTRAL LI SOUND 0400            47      20/ 16/ 17   N/A           1/ 4
EASTERN LI SOUND 0400            46 47  360/ 10/ 12   N/A
ROBBINS REEF     0400            50      50/ 16/ 18 1006.1
$$


>>>>>>>>>>>>>>>>>>>>>>>>>>>> KEY <<<<<<<<<<<<<<<<<<<<<<<<<<<
>                                                          <
>     SKY/WX - SKY CONDITION/PRESENT WEATHER               <
>     TMP    - TEMPERATURE IN FAHRENHEIT                   <
>     DP     - DEWPOINT IN FAHRENHEIT                      <
>     RH     - RELATIVE HUMIDITY IN PERCENT                <
>     WIND   - DIRECTION AND SPEED IN MPH                  <
>     PRES   - MEAN SEA LEVEL PRESSURE IN INCHES OF HG     <
>     WCI    - WIND CHILL INDEX                            <
>     VSB    - VISIBILITY IN MILES                         <
>     HX     - HEAT INDEX                                  <
>     TC     - TEMPERATURE IN CELSIUS                      <
>     VRB    - VARIABLE WIND DIRECTION                     <
>                                                          <
>>>>>>>>>>>>>>>>>>>>>>>>>>>> KEY <<<<<<<<<<<<<<<<<<<<<<<<<<<






USA.gov is the U.S. government's official web portal to all federal, state and local government web resources and services.